Location: ?????????
(55.6553°N, 38.9075°E)
Time: 18:19:05
(UTC+00:00)

SJ-6F - Pass Details

Date: 18 October 2019
Orbit: 571 x 594 km, 97.7° (Epoch: 19 November)

Event Time Altitude Azimuth Distance (km) Brightness Sun altitude
Rises 02:29:02 0° 12° (NNE) 2,843 8.2 -13.5°
Reaches altitude 10° 02:31:14 10° 9° (N) 1,934 7.2 -13.2°
Maximum altitude 02:35:22 58° 291° (WNW) 691 4.5 -12.6°
Drops below altitude 10° 02:39:25 10° 212° (SSW) 1,906 6.8 -12.1°
Sets 02:41:35 0° 208° (SSW) 2,798 7.6 -11.8°
